GWIZZ BIRK-BGSF

Flight info

Callsign GWIZZ
Flight time N/A
Altitude 4000
Route SORIR DCT SOPEN DCT NONRO DCT DA DCT MASIK DCT PEVAR DCT WUTAN DCT KEFOP
Aircraft PA24/L-SDGRY/S

Departure

Time 2026-04-22 09:00
Airport Reykjavík Domestic Airport (BIRK)

Arrival

Time N/A
Airport Kangerlussuaq International Airport (BGSF)
Time Latitude Longitude Altitude Speed Heading
2026-04-22 08:56 64.13136 -21.93525 42 ft 5 kts 214°
2026-04-22 08:56 64.13098 -21.93550 42 ft 0 kts 189°
2026-04-22 08:57 64.13087 -21.93552 42 ft 7 kts 182°
2026-04-22 08:57 64.13084 -21.93608 43 ft 9 kts 325°
2026-04-22 08:58 64.13129 -21.93727 42 ft 2 kts 286°
2026-04-22 08:58 64.13128 -21.93765 42 ft 0 kts 251°
2026-04-22 08:59 64.13110 -21.93795 43 ft 9 kts 172°
2026-04-22 08:59 64.12936 -21.93760 42 ft 52 kts 175°
2026-04-22 08:59 64.12407 -21.93644 57 ft 93 kts 172°
2026-04-22 08:59 64.11746 -21.93528 276 ft 99 kts 186°
2026-04-22 09:00 64.11075 -21.94067 559 ft 106 kts 214°
2026-04-22 09:00 64.10523 -21.95307 822 ft 115 kts 236°
2026-04-22 09:00 64.10054 -21.96808 1142 ft 116 kts 241°
2026-04-22 09:00 64.09695 -21.98424 1491 ft 113 kts 257°
2026-04-22 09:01 64.09626 -22.00179 1811 ft 110 kts 282°
2026-04-22 09:01 64.09886 -22.01780 2170 ft 107 kts 299°
2026-04-22 09:01 64.10160 -22.03392 2466 ft 111 kts 291°
2026-04-22 09:01 64.10379 -22.05121 2732 ft 114 kts 294°
2026-04-22 09:02 64.10660 -22.06837 3030 ft 116 kts 293°
2026-04-22 09:02 64.10931 -22.08560 3324 ft 117 kts 294°
2026-04-22 09:02 64.11200 -22.10315 3620 ft 117 kts 293°
2026-04-22 09:02 64.11462 -22.12075 3908 ft 117 kts 293°
2026-04-22 09:03 64.11724 -22.13840 4168 ft 117 kts 293°
2026-04-22 09:03 64.12072 -22.15498 4424 ft 115 kts 304°
2026-04-22 09:03 64.12482 -22.17076 4681 ft 115 kts 303°
2026-04-22 09:03 64.12888 -22.18646 4932 ft 115 kts 303°
2026-04-22 09:04 64.13300 -22.20208 5176 ft 115 kts 303°
2026-04-22 09:04 64.13716 -22.21767 5420 ft 115 kts 303°
2026-04-22 09:04 64.14135 -22.23325 5651 ft 115 kts 303°
2026-04-22 09:04 64.14557 -22.24884 5882 ft 115 kts 303°
2026-04-22 09:05 64.14983 -22.26441 6115 ft 115 kts 303°
2026-04-22 09:05 64.15414 -22.28011 6354 ft 117 kts 303°
2026-04-22 09:05 64.15853 -22.29589 6597 ft 118 kts 303°
2026-04-22 09:05 64.16297 -22.31170 6843 ft 118 kts 303°
2026-04-22 09:06 64.16862 -22.32551 7068 ft 119 kts 315°
2026-04-22 09:06 64.17300 -22.34156 7283 ft 121 kts 290°
2026-04-22 09:06 64.17516 -22.35992 7519 ft 120 kts 286°
2026-04-22 09:06 64.17738 -22.37929 7643 ft 129 kts 285°
2026-04-22 09:07 64.17960 -22.39944 7742 ft 135 kts 285°
2026-04-22 09:07 64.18187 -22.42061 7859 ft 138 kts 285°
2026-04-22 09:07 64.18418 -22.44227 7965 ft 141 kts 285°
2026-04-22 09:07 64.18650 -22.46425 8070 ft 142 kts 285°
2026-04-22 09:08 64.18885 -22.48648 8182 ft 144 kts 284°
2026-04-22 09:08 64.19121 -22.50881 8276 ft 144 kts 285°
2026-04-22 09:08 64.19357 -22.53124 8386 ft 145 kts 284°
2026-04-22 09:08 64.19591 -22.55364 8488 ft 144 kts 284°
2026-04-22 09:09 64.19829 -22.57612 8563 ft 145 kts 284°
2026-04-22 09:09 64.20068 -22.59882 8599 ft 148 kts 284°
2026-04-22 09:09 64.20313 -22.62212 8603 ft 152 kts 284°
2026-04-22 09:09 64.20561 -22.64579 8607 ft 153 kts 284°
2026-04-22 09:10 64.20810 -22.66972 8615 ft 154 kts 284°
2026-04-22 09:10 64.21057 -22.69341 8617 ft 155 kts 284°
2026-04-22 09:10 64.21308 -22.71749 8618 ft 155 kts 284°
2026-04-22 09:10 64.21558 -22.74159 8620 ft 155 kts 284°
2026-04-22 09:11 64.21808 -22.76566 8622 ft 155 kts 284°
2026-04-22 09:11 64.22056 -22.78971 8620 ft 155 kts 284°
2026-04-22 09:11 64.22304 -22.81373 8620 ft 154 kts 284°
2026-04-22 09:11 64.22551 -22.83770 8620 ft 154 kts 284°
2026-04-22 09:12 64.22798 -22.86169 8618 ft 154 kts 284°
2026-04-22 09:12 64.23045 -22.88579 8618 ft 155 kts 284°
2026-04-22 09:12 64.23292 -22.90985 8618 ft 155 kts 284°
2026-04-22 09:12 64.23539 -22.93400 8618 ft 155 kts 284°
2026-04-22 09:13 64.23785 -22.95806 8617 ft 154 kts 284°
2026-04-22 09:13 64.24031 -22.98204 8617 ft 154 kts 284°
2026-04-22 09:13 64.24276 -23.00613 8617 ft 155 kts 284°
2026-04-22 09:13 64.24519 -23.03017 8617 ft 155 kts 284°
2026-04-22 09:14 64.24761 -23.05429 8621 ft 154 kts 284°
2026-04-22 09:14 64.25006 -23.07820 8621 ft 153 kts 284°
2026-04-22 09:14 64.25247 -23.10206 8621 ft 153 kts 284°
2026-04-22 09:14 64.25485 -23.12566 8622 ft 153 kts 284°
2026-04-22 09:15 64.25731 -23.14988 8617 ft 154 kts 284°
2026-04-22 09:15 64.25969 -23.17382 8618 ft 153 kts 284°
2026-04-22 09:15 64.26209 -23.19764 8618 ft 153 kts 284°
2026-04-22 09:15 64.26446 -23.22125 8618 ft 153 kts 284°
2026-04-22 09:16 64.26684 -23.24515 8623 ft 154 kts 284°
2026-04-22 09:16 64.26923 -23.26912 8623 ft 154 kts 284°
2026-04-22 09:16 64.27162 -23.29309 8617 ft 154 kts 283°
2026-04-22 09:16 64.27403 -23.31724 8617 ft 155 kts 283°
2026-04-22 09:17 64.27642 -23.34141 8617 ft 155 kts 283°
2026-04-22 09:17 64.27882 -23.36562 8617 ft 155 kts 283°
2026-04-22 09:17 64.28122 -23.38981 8618 ft 155 kts 283°
2026-04-22 09:17 64.28360 -23.41398 8618 ft 155 kts 283°
2026-04-22 09:18 64.28598 -23.43818 8616 ft 155 kts 283°
2026-04-22 09:18 64.28837 -23.46241 8617 ft 155 kts 283°
2026-04-22 09:18 64.29075 -23.48667 8616 ft 155 kts 283°
2026-04-22 09:18 64.29313 -23.51090 8622 ft 155 kts 283°
2026-04-22 09:19 64.29549 -23.53512 8622 ft 155 kts 283°
2026-04-22 09:19 64.29786 -23.55934 8622 ft 155 kts 283°
2026-04-22 09:19 64.30022 -23.58359 8623 ft 155 kts 283°
2026-04-22 09:19 64.30258 -23.60784 8622 ft 155 kts 283°
2026-04-22 09:20 64.30493 -23.63205 8624 ft 155 kts 283°
2026-04-22 09:20 64.30724 -23.65586 8624 ft 154 kts 283°
2026-04-22 09:20 64.30957 -23.67992 8625 ft 154 kts 283°
2026-04-22 09:20 64.31189 -23.70398 8618 ft 154 kts 283°
2026-04-22 09:21 64.31423 -23.72799 8618 ft 154 kts 283°
2026-04-22 09:21 64.31654 -23.75212 8618 ft 155 kts 283°
2026-04-22 09:21 64.31885 -23.77637 8618 ft 155 kts 283°
2026-04-22 09:21 64.32118 -23.80062 8622 ft 154 kts 283°
2026-04-22 09:22 64.32349 -23.82465 8620 ft 153 kts 283°
2026-04-22 09:22 64.32578 -23.84869 8619 ft 154 kts 283°
2026-04-22 09:22 64.32807 -23.87284 8619 ft 154 kts 283°
2026-04-22 09:22 64.33037 -23.89704 8619 ft 154 kts 283°
2026-04-22 09:23 64.33267 -23.92122 8620 ft 154 kts 283°
2026-04-22 09:23 64.33496 -23.94542 8620 ft 154 kts 283°
2026-04-22 09:23 64.33706 -23.96961 8622 ft 153 kts 282°
2026-04-22 09:23 64.33943 -23.99343 8622 ft 152 kts 284°
2026-04-22 09:24 64.34173 -24.01717 8619 ft 151 kts 283°
2026-04-22 09:24 64.34396 -24.04088 8618 ft 151 kts 283°
2026-04-22 09:24 64.34618 -24.06454 8617 ft 151 kts 283°
2026-04-22 09:24 64.34847 -24.08827 8616 ft 152 kts 281°
2026-04-22 09:25 64.35053 -24.11211 8618 ft 151 kts 283°
2026-04-22 09:25 64.35282 -24.13584 8619 ft 151 kts 283°
2026-04-22 09:25 64.35506 -24.15958 8618 ft 151 kts 283°
2026-04-22 09:25 64.35725 -24.18299 8617 ft 152 kts 283°
2026-04-22 09:26 64.35950 -24.20693 8614 ft 153 kts 282°
2026-04-22 09:26 64.36170 -24.23116 8615 ft 154 kts 283°
2026-04-22 09:26 64.36394 -24.25538 8616 ft 154 kts 283°
2026-04-22 09:26 64.36603 -24.27961 8617 ft 153 kts 281°
2026-04-22 09:27 64.36833 -24.30362 8619 ft 153 kts 284°
2026-04-22 09:27 64.37064 -24.32771 8619 ft 154 kts 282°
2026-04-22 09:27 64.37283 -24.35195 8618 ft 154 kts 282°
2026-04-22 09:27 64.37504 -24.37627 8618 ft 155 kts 282°
2026-04-22 09:28 64.37727 -24.40061 8618 ft 155 kts 282°
2026-04-22 09:28 64.37949 -24.42490 8618 ft 155 kts 282°
2026-04-22 09:28 64.38156 -24.44927 8619 ft 154 kts 279°
2026-04-22 09:28 64.38371 -24.47339 8619 ft 153 kts 284°
2026-04-22 09:29 64.38604 -24.49728 8622 ft 152 kts 283°
2026-04-22 09:29 64.38823 -24.52118 8622 ft 152 kts 282°
2026-04-22 09:29 64.39039 -24.54505 8621 ft 152 kts 282°
2026-04-22 09:29 64.39252 -24.56890 8620 ft 152 kts 282°
2026-04-22 09:30 64.39467 -24.59276 8616 ft 152 kts 282°
2026-04-22 09:30 64.39681 -24.61664 8617 ft 152 kts 282°
2026-04-22 09:30 64.39895 -24.64054 8617 ft 152 kts 282°
2026-04-22 09:30 64.40109 -24.66445 8616 ft 152 kts 282°
2026-04-22 09:31 64.40319 -24.68809 8619 ft 152 kts 282°
2026-04-22 09:31 64.40623 -24.71157 8611 ft 153 kts 288°
2026-04-22 09:31 64.40965 -24.73496 8609 ft 153 kts 288°
2026-04-22 09:31 64.41296 -24.75826 8610 ft 152 kts 287°
2026-04-22 09:32 64.41622 -24.78144 8611 ft 151 kts 287°
2026-04-22 09:32 64.41945 -24.80444 8608 ft 150 kts 287°
2026-04-22 09:32 64.42270 -24.82749 8607 ft 150 kts 287°
2026-04-22 09:32 64.42592 -24.85041 8605 ft 150 kts 287°
2026-04-22 09:33 64.42910 -24.87353 8603 ft 152 kts 287°
2026-04-22 09:33 64.43246 -24.89687 8604 ft 153 kts 290°
2026-04-22 09:33 64.43575 -24.92031 8604 ft 154 kts 287°
2026-04-22 09:33 64.43905 -24.94399 8606 ft 154 kts 290°
2026-04-22 09:34 64.44243 -24.96732 8607 ft 153 kts 286°
2026-04-22 09:34 64.44561 -24.99072 8609 ft 152 kts 289°
2026-04-22 09:34 64.44889 -25.01385 8616 ft 150 kts 286°
2026-04-22 09:35 64.45516 -25.05985 8614 ft 151 kts 289°
2026-04-22 09:35 64.45841 -25.08296 8612 ft 151 kts 285°
2026-04-22 09:35 64.46156 -25.10622 8612 ft 152 kts 287°
2026-04-22 09:35 64.46483 -25.12962 8612 ft 153 kts 287°
2026-04-22 09:36 64.46809 -25.15314 8612 ft 154 kts 287°
2026-04-22 09:36 64.47135 -25.17675 8613 ft 154 kts 287°
2026-04-22 09:36 64.47461 -25.20045 8613 ft 154 kts 287°
2026-04-22 09:36 64.47787 -25.22405 8610 ft 154 kts 287°
2026-04-22 09:37 64.48109 -25.24761 8608 ft 154 kts 287°
2026-04-22 09:37 64.48447 -25.27096 8609 ft 152 kts 288°
2026-04-22 09:37 64.48757 -25.29429 8609 ft 151 kts 284°
2026-04-22 09:37 64.49058 -25.31766 8606 ft 152 kts 287°
2026-04-22 09:38 64.49288 -25.33290 8607 ft 151 kts 290°
2026-04-22 09:38 64.49706 -25.36377 8604 ft 149 kts 283°
2026-04-22 09:38 64.50023 -25.38644 8606 ft 150 kts 289°
2026-04-22 09:38 64.50228 -25.40199 8605 ft 150 kts 284°
2026-04-22 09:39 64.50638 -25.43318 8611 ft 152 kts 290°
2026-04-22 09:39 64.50967 -25.45607 8612 ft 151 kts 285°
2026-04-22 09:39 64.51270 -25.47953 8612 ft 152 kts 286°
2026-04-22 09:39 64.51491 -25.49531 8614 ft 152 kts 290°
2026-04-22 09:40 64.51818 -25.51838 8608 ft 150 kts 285°
2026-04-22 09:40 64.52113 -25.54158 8608 ft 149 kts 285°
2026-04-22 09:40 64.52419 -25.56454 8607 ft 149 kts 286°
2026-04-22 09:40 64.52729 -25.58755 8607 ft 149 kts 286°
2026-04-22 09:41 64.53035 -25.61027 8610 ft 149 kts 286°
2026-04-22 09:41 64.53344 -25.63326 8611 ft 149 kts 286°
2026-04-22 09:41 64.53652 -25.65624 8602 ft 149 kts 286°
2026-04-22 09:41 64.53957 -25.67948 8600 ft 151 kts 288°
2026-04-22 09:42 64.54283 -25.70256 8600 ft 150 kts 286°
2026-04-22 09:42 64.54584 -25.72570 8601 ft 149 kts 285°
2026-04-22 09:42 64.54878 -25.74899 8597 ft 151 kts 286°
2026-04-22 09:42 64.55199 -25.77243 8597 ft 153 kts 287°
2026-04-22 09:43 64.55523 -25.79585 8599 ft 152 kts 285°
2026-04-22 09:43 64.55827 -25.81949 8599 ft 153 kts 289°
2026-04-22 09:43 64.56169 -25.84273 8599 ft 151 kts 286°
2026-04-22 09:43 64.56450 -25.86624 8598 ft 151 kts 287°
2026-04-22 09:44 64.56764 -25.88943 8604 ft 150 kts 286°
2026-04-22 09:44 64.57055 -25.91275 8601 ft 151 kts 284°
2026-04-22 09:44 64.57364 -25.93619 8599 ft 152 kts 287°
2026-04-22 09:44 64.57681 -25.95980 8599 ft 153 kts 286°
2026-04-22 09:45 64.58001 -25.98329 8601 ft 151 kts 287°
2026-04-22 09:45 64.58298 -26.00642 8600 ft 151 kts 285°
2026-04-22 09:45 64.58600 -26.03004 8599 ft 152 kts 286°
2026-04-22 09:45 64.58912 -26.05370 8599 ft 153 kts 286°
2026-04-22 09:46 64.59223 -26.07744 8602 ft 153 kts 284°
2026-04-22 09:46 64.59525 -26.10108 8603 ft 152 kts 285°
2026-04-22 09:46 64.59836 -26.12455 8603 ft 152 kts 285°
2026-04-22 09:46 64.60143 -26.14805 8603 ft 152 kts 285°
2026-04-22 09:47 64.60449 -26.17152 8602 ft 151 kts 285°
2026-04-22 09:47 64.60771 -26.19463 8602 ft 149 kts 285°
2026-04-22 09:47 64.61046 -26.21783 8600 ft 148 kts 283°
2026-04-22 09:47 64.61353 -26.24082 8601 ft 148 kts 286°
2026-04-22 09:48 64.61650 -26.26380 8603 ft 148 kts 283°
2026-04-22 09:48 64.61931 -26.28685 8601 ft 149 kts 285°
2026-04-22 09:48 64.62246 -26.30984 8602 ft 149 kts 284°
2026-04-22 09:48 64.62532 -26.33317 8601 ft 150 kts 285°
2026-04-22 09:49 64.62845 -26.35630 8603 ft 150 kts 289°
2026-04-22 09:49 64.63148 -26.37939 8604 ft 148 kts 282°
2026-04-22 09:49 64.63418 -26.40279 8603 ft 150 kts 285°
2026-04-22 09:49 64.63729 -26.42597 8605 ft 150 kts 285°
2026-04-22 09:50 64.64027 -26.44911 8601 ft 148 kts 284°
2026-04-22 09:50 64.64313 -26.47184 8600 ft 148 kts 284°
2026-04-22 09:50 64.64604 -26.49478 8600 ft 147 kts 284°
2026-04-22 09:50 64.64894 -26.51766 8592 ft 147 kts 284°
2026-04-22 09:51 64.65184 -26.54049 8590 ft 147 kts 284°
2026-04-22 09:51 64.65473 -26.56332 8590 ft 147 kts 284°
2026-04-22 09:51 64.65763 -26.58619 8589 ft 147 kts 284°
2026-04-22 09:51 64.66052 -26.60918 8588 ft 148 kts 283°
2026-04-22 09:52 64.66344 -26.63233 8587 ft 149 kts 287°
2026-04-22 09:52 64.66650 -26.65536 8587 ft 148 kts 284°
2026-04-22 09:52 64.66915 -26.67862 8584 ft 149 kts 284°
2026-04-22 09:52 64.67216 -26.70188 8584 ft 150 kts 285°
2026-04-22 09:53 64.67530 -26.72505 8589 ft 149 kts 283°
2026-04-22 09:53 64.67805 -26.74853 8589 ft 150 kts 287°
2026-04-22 09:53 64.68119 -26.77163 8590 ft 148 kts 284°
2026-04-22 09:53 64.68391 -26.79486 8589 ft 148 kts 282°
2026-04-22 09:54 64.68681 -26.81798 8589 ft 148 kts 286°
2026-04-22 09:54 64.68967 -26.84093 8588 ft 146 kts 279°
2026-04-22 09:54 64.69223 -26.86407 8582 ft 148 kts 284°
2026-04-22 09:54 64.69526 -26.88692 8581 ft 150 kts 285°
2026-04-22 09:55 64.69823 -26.91033 8578 ft 150 kts 284°
2026-04-22 09:55 64.70141 -26.93355 8576 ft 151 kts 289°
2026-04-22 09:55 64.70540 -26.95636 8569 ft 151 kts 289°
2026-04-22 09:55 64.70932 -26.97918 8571 ft 151 kts 290°
2026-04-22 09:56 64.71315 -27.00176 8575 ft 149 kts 287°
2026-04-22 09:56 64.71687 -27.02456 8573 ft 151 kts 290°
2026-04-22 09:56 64.72095 -27.04714 8575 ft 150 kts 293°
2026-04-22 09:56 64.72486 -27.06957 8572 ft 148 kts 289°
2026-04-22 09:57 64.72848 -27.09206 8570 ft 147 kts 285°
2026-04-22 09:57 64.73204 -27.11469 8567 ft 149 kts 295°
2026-04-22 09:57 64.73609 -27.13700 8582 ft 150 kts 287°
2026-04-22 09:57 64.74021 -27.15918 8581 ft 147 kts 289°
2026-04-22 09:58 64.74349 -27.18161 8578 ft 145 kts 283°
2026-04-22 09:58 64.74732 -27.20357 8582 ft 145 kts 288°
2026-04-22 09:58 64.75096 -27.22562 8582 ft 145 kts 286°
2026-04-22 09:58 64.75460 -27.24767 8583 ft 145 kts 287°
2026-04-22 09:59 64.75827 -27.26963 8586 ft 145 kts 287°
2026-04-22 09:59 64.76194 -27.29156 8585 ft 144 kts 283°
2026-04-22 09:59 64.76542 -27.31378 8581 ft 147 kts 288°
2026-04-22 09:59 64.76943 -27.33582 8572 ft 147 kts 288°
2026-04-22 10:00 64.77333 -27.35802 8574 ft 147 kts 294°
2026-04-22 10:00 64.77713 -27.38006 8574 ft 145 kts 286°
2026-04-22 10:00 64.78034 -27.40237 8571 ft 144 kts 282°
2026-04-22 10:00 64.78405 -27.42434 8571 ft 146 kts 293°
2026-04-22 10:01 64.78776 -27.44631 8571 ft 145 kts 284°
2026-04-22 10:01 64.79131 -27.46867 8570 ft 147 kts 288°
2026-04-22 10:01 64.79511 -27.49111 8571 ft 149 kts 288°
2026-04-22 10:01 64.79888 -27.51373 8572 ft 149 kts 288°
2026-04-22 10:02 64.80259 -27.53616 8573 ft 149 kts 288°
2026-04-22 10:02 64.80647 -27.55864 8575 ft 148 kts 291°
2026-04-22 10:02 64.80999 -27.58108 8575 ft 146 kts 284°
2026-04-22 10:02 64.81395 -27.60308 8578 ft 146 kts 289°
2026-04-22 10:03 64.81725 -27.62538 8581 ft 145 kts 289°
2026-04-22 10:03 64.82090 -27.64734 8585 ft 144 kts 284°
2026-04-22 10:03 64.82449 -27.66954 8588 ft 146 kts 288°
2026-04-22 10:03 64.82815 -27.69186 8589 ft 147 kts 291°
2026-04-22 10:04 64.83205 -27.71394 8583 ft 145 kts 286°
2026-04-22 10:04 64.83550 -27.73615 8584 ft 144 kts 286°
2026-04-22 10:04 64.83904 -27.75822 8586 ft 144 kts 287°
2026-04-22 10:04 64.84256 -27.78042 8584 ft 146 kts 286°
2026-04-22 10:05 64.84630 -27.80266 8585 ft 146 kts 289°
2026-04-22 10:05 64.85001 -27.82484 8585 ft 145 kts 286°
2026-04-22 10:05 64.85352 -27.84701 8586 ft 144 kts 286°
2026-04-22 10:05 64.85678 -27.86941 8579 ft 146 kts 287°
2026-04-22 10:06 64.86068 -27.89151 8583 ft 146 kts 287°
2026-04-22 10:06 64.86442 -27.91389 8586 ft 146 kts 289°
2026-04-22 10:06 64.86806 -27.93607 8590 ft 145 kts 288°
2026-04-22 10:06 64.87153 -27.95825 8589 ft 144 kts 281°
2026-04-22 10:07 64.87482 -27.98067 8574 ft 147 kts 288°
2026-04-22 10:07 64.87867 -28.00299 8576 ft 147 kts 289°
2026-04-22 10:07 64.88239 -28.02535 8577 ft 146 kts 285°
2026-04-22 10:07 64.88582 -28.04773 8576 ft 148 kts 287°
2026-04-22 10:08 64.88951 -28.07031 8576 ft 148 kts 288°
2026-04-22 10:08 64.89319 -28.09311 8576 ft 149 kts 288°
2026-04-22 10:08 64.89686 -28.11588 8587 ft 148 kts 286°
2026-04-22 10:08 64.90069 -28.13820 8587 ft 146 kts 287°
2026-04-22 10:09 64.90412 -28.16041 8591 ft 144 kts 288°
2026-04-22 10:09 64.90744 -28.18237 8589 ft 141 kts 280°
2026-04-22 10:09 64.91100 -28.20407 8592 ft 143 kts 287°
2026-04-22 10:09 64.91441 -28.22616 8595 ft 144 kts 285°
2026-04-22 10:10 64.91828 -28.24789 8596 ft 143 kts 284°
2026-04-22 10:10 64.92175 -28.26994 8599 ft 144 kts 289°
2026-04-22 10:10 64.92513 -28.29189 8599 ft 142 kts 283°
2026-04-22 10:10 64.92838 -28.31376 8600 ft 141 kts 284°
2026-04-22 10:11 64.93174 -28.33525 8599 ft 141 kts 285°
2026-04-22 10:11 64.93518 -28.35694 8599 ft 141 kts 285°
2026-04-22 10:11 64.93849 -28.37871 8598 ft 141 kts 282°
2026-04-22 10:11 64.94188 -28.40066 8596 ft 144 kts 291°
2026-04-22 10:12 64.94557 -28.42235 8602 ft 142 kts 282°
2026-04-22 10:12 64.94884 -28.44466 8600 ft 145 kts 291°
2026-04-22 10:12 64.95246 -28.46661 8609 ft 143 kts 293°
2026-04-22 10:12 64.95623 -28.48820 8594 ft 141 kts 288°
2026-04-22 10:13 64.95958 -28.51005 8596 ft 141 kts 284°
2026-04-22 10:13 64.96255 -28.53213 8591 ft 142 kts 283°
2026-04-22 10:13 64.96603 -28.55427 8590 ft 145 kts 287°
2026-04-22 10:13 64.96966 -28.57659 8592 ft 146 kts 286°
2026-04-22 10:14 64.97319 -28.59904 8593 ft 146 kts 286°
2026-04-22 10:14 64.97667 -28.62144 8594 ft 146 kts 286°
2026-04-22 10:14 64.98032 -28.64374 8595 ft 145 kts 286°
2026-04-22 10:14 64.98355 -28.66591 8595 ft 145 kts 285°
2026-04-22 10:15 64.98717 -28.68830 8596 ft 146 kts 291°
2026-04-22 10:15 64.99078 -28.71039 8594 ft 142 kts 279°
2026-04-22 10:15 64.99422 -28.73231 8598 ft 142 kts 286°
2026-04-22 10:15 64.99706 -28.75455 8594 ft 143 kts 284°
2026-04-22 10:16 65.00076 -28.77656 8597 ft 144 kts 286°
2026-04-22 10:16 65.00439 -28.79866 8599 ft 144 kts 290°
2026-04-22 10:16 65.00784 -28.82074 8596 ft 142 kts 283°
2026-04-22 10:16 65.01077 -28.84310 8592 ft 143 kts 284°
2026-04-22 10:17 65.01444 -28.86508 8595 ft 143 kts 286°
2026-04-22 10:17 65.01782 -28.88712 8584 ft 142 kts 284°
2026-04-22 10:17 65.02115 -28.90919 8585 ft 142 kts 284°
2026-04-22 10:17 65.02450 -28.93114 8585 ft 142 kts 284°
2026-04-22 10:18 65.02786 -28.95307 8584 ft 142 kts 281°
2026-04-22 10:18 65.03097 -28.97529 8579 ft 144 kts 285°
2026-04-22 10:18 65.03482 -28.99718 8582 ft 144 kts 285°
2026-04-22 10:18 65.03818 -29.01960 8586 ft 145 kts 288°
2026-04-22 10:19 65.04148 -29.04186 8594 ft 143 kts 291°
2026-04-22 10:19 65.04512 -29.06360 8591 ft 140 kts 279°
2026-04-22 10:19 65.04789 -29.08599 8586 ft 144 kts 291°
2026-04-22 10:19 65.05167 -29.10781 8589 ft 143 kts 282°
2026-04-22 10:20 65.05471 -29.13033 8589 ft 145 kts 285°
2026-04-22 10:20 65.05814 -29.15257 8590 ft 146 kts 286°
2026-04-22 10:20 65.06162 -29.17531 8590 ft 147 kts 285°
2026-04-22 10:20 65.06508 -29.19811 8590 ft 147 kts 285°
2026-04-22 10:21 65.06853 -29.22093 8590 ft 147 kts 285°
2026-04-22 10:21 65.07206 -29.24369 8592 ft 146 kts 287°
2026-04-22 10:21 65.07524 -29.26637 8592 ft 145 kts 283°
2026-04-22 10:21 65.07903 -29.28858 8580 ft 145 kts 288°
2026-04-22 10:22 65.08219 -29.31095 8585 ft 143 kts 288°
2026-04-22 10:22 65.08549 -29.33312 8585 ft 142 kts 279°
2026-04-22 10:22 65.08855 -29.35567 8583 ft 145 kts 287°
2026-04-22 10:22 65.09215 -29.37800 8585 ft 145 kts 284°
2026-04-22 10:23 65.09585 -29.40020 8586 ft 144 kts 288°
2026-04-22 10:23 65.09899 -29.42253 8584 ft 142 kts 282°
2026-04-22 10:23 65.10207 -29.44481 8585 ft 142 kts 283°
2026-04-22 10:23 65.10533 -29.46698 8585 ft 142 kts 284°
2026-04-22 10:24 65.10860 -29.48919 8584 ft 143 kts 283°
2026-04-22 10:24 65.11187 -29.51135 8584 ft 144 kts 288°
2026-04-22 10:24 65.11545 -29.53350 8583 ft 143 kts 283°
2026-04-22 10:24 65.11857 -29.55580 8583 ft 142 kts 283°
2026-04-22 10:25 65.12149 -29.57832 8575 ft 144 kts 284°
2026-04-22 10:25 65.12512 -29.60062 8576 ft 145 kts 286°
2026-04-22 10:25 65.12874 -29.62302 8576 ft 145 kts 290°
2026-04-22 10:25 65.13202 -29.64534 8580 ft 142 kts 287°
2026-04-22 10:26 65.13532 -29.66755 8582 ft 142 kts 283°
2026-04-22 10:26 65.13796 -29.69003 8575 ft 143 kts 283°
2026-04-22 10:26 65.14151 -29.71241 8577 ft 145 kts 289°
2026-04-22 10:26 65.14482 -29.73460 8578 ft 144 kts 283°
2026-04-22 10:27 65.14813 -29.75758 8579 ft 145 kts 285°
2026-04-22 10:27 65.15144 -29.78002 8579 ft 146 kts 285°
2026-04-22 10:27 65.15479 -29.80286 8580 ft 147 kts 285°
2026-04-22 10:27 65.15813 -29.82578 8580 ft 147 kts 285°
2026-04-22 10:28 65.16149 -29.84873 8582 ft 147 kts 289°
2026-04-22 10:28 65.16505 -29.87128 8581 ft 144 kts 280°
2026-04-22 10:28 65.16808 -29.89393 8588 ft 144 kts 289°
2026-04-22 10:28 65.17156 -29.91603 8585 ft 141 kts 277°
2026-04-22 10:29 65.17434 -29.93850 8588 ft 143 kts 293°
2026-04-22 10:29 65.17781 -29.96065 8588 ft 143 kts 283°
2026-04-22 10:29 65.18140 -29.98281 8588 ft 143 kts 282°
2026-04-22 10:29 65.18397 -30.00554 8590 ft 143 kts 279°
2026-04-22 10:30 65.18515 -30.02093 8588 ft 143 kts 276°
2026-04-22 10:30 65.18828 -30.05145 8583 ft 141 kts 278°
2026-04-22 10:30 65.18916 -30.06661 8580 ft 139 kts 272°
2026-04-22 10:30 65.19104 -30.09661 8580 ft 138 kts 276°
2026-04-22 10:31 65.19221 -30.11175 8579 ft 137 kts 275°
2026-04-22 10:31 65.19442 -30.14122 8582 ft 136 kts 275°
2026-04-22 10:31 65.19555 -30.15589 8582 ft 136 kts 275°
2026-04-22 10:31 65.19726 -30.17796 8581 ft 135 kts 275°
2026-04-22 10:32 65.19896 -30.20002 8581 ft 135 kts 275°
2026-04-22 10:32 65.20066 -30.22207 8581 ft 135 kts 275°
2026-04-22 10:32 65.20235 -30.24413 8580 ft 135 kts 275°
2026-04-22 10:32 65.20405 -30.26622 8580 ft 136 kts 275°
2026-04-22 10:33 65.20575 -30.28840 8579 ft 136 kts 275°
2026-04-22 10:33 65.20745 -30.31066 8579 ft 136 kts 275°
2026-04-22 10:33 65.20915 -30.33289 8579 ft 137 kts 275°
2026-04-22 10:33 65.21073 -30.35518 8583 ft 133 kts 263°
2026-04-22 10:34 65.21174 -30.37741 8530 ft 139 kts 274°
2026-04-22 10:34 65.21380 -30.39996 8529 ft 142 kts 279°
2026-04-22 10:34 65.21695 -30.42188 8493 ft 138 kts 278°
2026-04-22 10:34 65.21789 -30.44450 8492 ft 137 kts 269°
2026-04-22 10:35 65.21884 -30.46673 8481 ft 127 kts 257°
2026-04-22 10:35 65.21978 -30.48677 8383 ft 126 kts 274°
2026-04-22 10:35 65.22170 -30.50802 8373 ft 136 kts 278°
2026-04-22 10:35 65.22413 -30.53015 8382 ft 136 kts 289°
2026-04-22 10:36 65.22640 -30.55196 8363 ft 137 kts 271°
2026-04-22 10:36 65.22744 -30.57488 8358 ft 141 kts 274°
2026-04-22 10:36 65.22908 -30.59813 8372 ft 143 kts 286°
2026-04-22 10:36 65.23336 -30.61691 8366 ft 129 kts 288°
2026-04-22 10:37 65.23415 -30.63780 8400 ft 127 kts 260°
2026-04-22 10:37 65.23534 -30.68053 8504 ft 131 kts 273°
2026-04-22 10:37 65.23684 -30.70213 8520 ft 134 kts 274°
2026-04-22 10:38 65.23796 -30.72405 8517 ft 135 kts 271°
2026-04-22 10:38 65.23980 -30.74645 8512 ft 140 kts 278°
2026-04-22 10:38 65.24171 -30.76955 8517 ft 143 kts 276°
2026-04-22 10:38 65.24347 -30.79300 8519 ft 145 kts 276°
2026-04-22 10:39 65.24519 -30.81642 8519 ft 145 kts 276°
2026-04-22 10:39 65.24691 -30.84016 8521 ft 145 kts 276°
2026-04-22 10:39 65.24863 -30.86393 8523 ft 145 kts 276°
2026-04-22 10:39 65.25036 -30.88773 8525 ft 146 kts 276°
2026-04-22 10:40 65.25208 -30.91157 8523 ft 146 kts 276°
2026-04-22 10:40 65.25380 -30.93538 8524 ft 146 kts 276°
2026-04-22 10:40 65.25551 -30.95917 8524 ft 145 kts 276°
2026-04-22 10:40 65.25721 -30.98285 8525 ft 145 kts 276°
2026-04-22 10:41 65.25893 -31.00649 8523 ft 144 kts 288°
2026-04-22 10:41 65.26130 -31.02942 8503 ft 141 kts 274°
2026-04-22 10:41 65.26238 -31.05253 8503 ft 140 kts 272°
2026-04-22 10:41 65.26383 -31.07550 8496 ft 140 kts 274°
2026-04-22 10:42 65.26543 -31.09841 8496 ft 140 kts 274°
2026-04-22 10:42 65.26706 -31.12130 8496 ft 140 kts 275°
2026-04-22 10:42 65.26854 -31.14419 8495 ft 138 kts 268°
2026-04-22 10:42 65.26994 -31.16714 8487 ft 142 kts 276°
2026-04-22 10:43 65.27185 -31.19034 8490 ft 143 kts 276°
2026-04-22 10:43 65.27356 -31.21379 8490 ft 144 kts 275°
2026-04-22 10:43 65.27522 -31.23736 8491 ft 144 kts 275°
2026-04-22 10:43 65.27687 -31.26103 8492 ft 144 kts 275°
2026-04-22 10:44 65.27852 -31.28459 8492 ft 144 kts 275°
2026-04-22 10:44 65.28016 -31.30832 8510 ft 145 kts 275°
2026-04-22 10:44 65.28180 -31.33206 8508 ft 145 kts 276°
2026-04-22 10:44 65.28345 -31.35594 8512 ft 146 kts 276°
2026-04-22 10:45 65.28511 -31.37986 8509 ft 146 kts 276°
2026-04-22 10:45 65.28675 -31.40375 8518 ft 146 kts 276°
2026-04-22 10:45 65.28839 -31.42761 8510 ft 145 kts 276°
2026-04-22 10:45 65.28997 -31.45147 8510 ft 145 kts 275°
2026-04-22 10:46 65.29422 -31.47074 8456 ft 132 kts 295°
2026-04-22 10:46 65.29621 -31.49176 8420 ft 131 kts 264°
2026-04-22 10:46 65.29509 -31.51336 8419 ft 133 kts 264°
2026-04-22 10:46 65.29591 -31.53566 8423 ft 136 kts 272°
2026-04-22 10:47 65.29731 -31.55806 8416 ft 137 kts 273°
2026-04-22 10:47 65.29877 -31.58020 8419 ft 137 kts 273°
2026-04-22 10:47 65.30028 -31.60271 8419 ft 138 kts 274°
2026-04-22 10:47 65.30084 -31.62438 8374 ft 125 kts 261°
2026-04-22 10:48 65.30183 -31.64553 8309 ft 131 kts 271°
2026-04-22 10:48 65.30391 -31.66759 8301 ft 139 kts 279°
2026-04-22 10:48 65.30695 -31.68927 8278 ft 138 kts 279°
2026-04-22 10:48 65.30794 -31.71236 8278 ft 141 kts 271°
2026-04-22 10:49 65.30918 -31.73591 8285 ft 144 kts 274°
2026-04-22 10:49 65.31074 -31.75969 8290 ft 145 kts 275°
2026-04-22 10:49 65.31234 -31.78357 8292 ft 146 kts 275°
2026-04-22 10:49 65.31391 -31.80755 8294 ft 146 kts 275°
2026-04-22 10:50 65.31793 -31.82765 8241 ft 133 kts 291°